GFSNE_500_spd_075.txt.gz
Wind_Speed
30 31 37 36 32 32 33 32 32 30 29 26 28 33 32 34 35 37 36 38 41 42 41 42 42 45 47 48 48 47 46 47 50 50 50 49 52 51
26 30 32 33 34 34 35 34 31 33 32 32 33 33 37 40 39 41 42 45 45 46 46 45 47 48 48 51 51 49 50 52 53 53 54 54 54 54
29 27 25 24 29 36 39 38 37 37 38 35 37 37 41 44 45 47 49 50 46 45 46 48 50 49 50 52 55 55 52 50 49 55 57 56 55 56
27 29 28 31 32 30 30 33 36 37 40 42 42 43 42 44 47 48 49 49 50 49 50 53 53 53 55 56 57 57 54 57 53 58 56 56 50 52
28 28 27 31 30 33 37 39 41 42 44 45 44 43 43 44 46 49 49 50 51 51 53 56 55 55 56 58 58 58 61 60 62 58 58 55 51 51
31 32 33 35 35 36 38 39 40 43 44 47 48 45 47 46 48 45 45 47 49 51 54 54 56 56 59 59 60 59 59 60 59 58 59 59 63 64
35 35 37 38 39 40 42 41 42 44 46 49 51 50 49 48 49 49 53 53 55 58 57 59 60 61 60 62 62 59 60 61 62 63 63 64 69 71
38 39 41 43 44 45 46 46 47 49 51 52 54 56 56 55 57 60 60 60 58 57 58 62 58 56 58 60 63 66 64 64 65 67 68 72 73 67
40 41 42 42 43 46 47 50 51 53 56 57 57 58 57 56 54 52 53 55 54 57 59 62 62 60 61 65 63 71 74 67 69 70 71 70 70 72
46 45 48 48 48 47 49 51 53 56 58 59 61 60 60 58 58 58 60 61 61 62 63 65 67 70 70 72 66 72 69 77 79 78 79 74 75 74
53 57 57 54 55 55 55 55 57 58 59 62 66 68 69 68 67 67 65 66 65 64 70 77 79 76 82 81 79 77 81 82 80 73 76 81 80 80
64 67 60 59 60 58 61 62 66 66 69 67 69 70 74 71 73 79 70 73 78 77 85 85 88 86 87 88 92 89 88 82 76 73 71 79 85 84
64 63 65 70 70 67 70 69 73 70 72 74 77 71 78 74 79 78 77 76 81 87 90 92 96 94 90 81 85 89 82 72 79 82 79 80 82 82
68 71 68 67 72 72 68 72 76 81 80 85 77 78 87 73 82 79 79 83 96 86 89 93 103 101 91 87 82 72 76 77 81 84 81 78 80 79
68 69 70 69 79 79 76 77 81 90 85 81 74 88 85 93 83 94 86 84 87 92 93 89 91 89 80 73 70 72 76 77 77 77 77 78 82 85
71 70 71 81 77 71 67 72 86 78 70 74 84 81 85 95 89 90 78 84 83 89 92 80 73 70 70 69 69 70 72 76 78 81 83 87 88 89
67 66 68 71 73 81 82 74 78 81 87 81 79 82 89 84 82 80 78 79 74 65 64 64 64 66 68 70 74 78 83 86 87 89 90 90 90 90
65 62 64 66 69 73 70 61 60 66 68 63 66 71 70 69 61 58 61 61 63 65 67 69 72 75 79 82 84 86 88 87 87 88 89 89 90 92
65 64 62 64 63 62 62 64 68 67 63 62 63 63 63 65 67 68 69 69 71 72 74 77 77 79 81 82 86 89 90 90 92 93 94 96 97 96
60 59 58 62 61 59 58 58 59 59 62 63 64 64 66 68 68 69 71 73 75 76 78 80 81 82 83 85 87 92 95 95 97 99 100 101 102 100
56 57 56 57 59 59 60 62 63 65 66 69 69 70 71 72 72 74 76 76 78 80 82 84 85 87 88 90 92 93 96 98 98 100 100 98 97 94
58 58 58 59 60 61 62 64 66 67 69 71 73 75 77 78 79 80 80 82 83 85 87 88 89 90 90 90 90 93 94 95 93 92 91 89 85 79
60 61 62 64 65 66 67 69 71 72 74 76 78 79 81 82 83 83 85 85 86 86 86 84 85 86 84 83 82 82 82 81 79 77 78 80 75 69

GFSNE_500_spd_081.txt.gz
Wind_Speed
32 30 31 33 35 37 37 39 40 36 33 31 34 39 41 40 35 31 31 31 34 35 35 33 36 37 38 39 39 39 41 43 45 47 47 47 47 48
29 29 32 32 32 28 27 29 30 33 34 33 33 35 36 37 36 36 35 37 37 37 39 40 41 41 42 42 44 46 48 50 50 48 46 48 49 49
22 19 20 20 23 27 28 29 33 37 40 36 33 37 39 40 41 42 41 43 43 43 42 44 45 45 47 48 48 50 50 51 51 50 52 53 52 54
21 24 24 26 29 30 34 34 34 34 36 35 35 36 40 43 47 48 46 47 48 46 44 45 48 49 49 49 50 51 52 54 56 56 54 56 55 56
21 21 23 25 25 28 29 31 33 36 39 41 37 40 40 40 41 42 44 47 49 48 49 48 48 51 51 52 53 54 55 53 52 53 56 59 60 59
25 26 27 30 31 33 35 36 37 39 40 44 44 43 45 44 47 45 45 48 49 49 50 50 52 53 54 53 52 55 55 57 61 63 62 61 59 55
27 29 32 34 35 37 40 38 41 42 43 46 49 50 50 49 49 50 53 50 51 52 53 54 54 56 55 57 58 59 61 63 61 58 56 56 55 55
31 33 35 36 37 39 41 43 44 46 47 49 50 51 50 50 51 51 53 54 55 52 56 59 59 59 60 61 63 64 65 64 64 63 62 62 62 65
38 39 41 43 43 43 44 46 47 50 53 55 55 55 56 56 55 56 56 57 60 61 61 61 63 64 65 63 63 64 66 68 69 69 71 69 71 72
46 47 47 49 49 51 53 55 58 60 59 60 62 64 65 66 66 69 68 66 64 64 64 66 69 70 69 68 69 69 68 69 75 78 78 77 77 80
56 57 58 57 58 59 60 61 61 62 64 65 64 63 70 73 74 71 75 73 73 70 75 74 76 81 77 79 79 80 77 78 80 83 81 87 87 85
64 65 66 67 67 65 64 65 64 67 69 63 60 70 67 75 70 75 71 72 76 79 85 86 86 91 88 88 86 90 91 88 91 94 91 87 90 91
54 56 59 61 62 62 63 62 62 65 67 72 77 79 79 76 76 84 80 78 80 84 88 85 85 84 85 86 84 82 84 86 85 88 87 83 82 84
54 55 57 60 62 64 65 66 68 69 70 73 74 75 79 80 85 88 86 86 91 90 92 92 93 96 93 91 90 91 87 88 88 84 85 83 85 84
55 58 60 62 64 67 70 72 74 74 75 77 78 79 79 78 81 86 87 86 87 90 88 89 91 89 85 87 87 85 82 79 76 74 73 75 75 73
56 59 61 62 63 64 65 67 70 72 74 76 78 81 82 82 81 81 81 81 80 79 79 76 73 74 73 72 71 71 71 68 67 67 67 67 68 69
61 63 64 64 64 64 63 62 61 60 60 61 61 63 65 67 68 68 68 69 70 70 71 71 70 69 69 68 68 69 69 69 69 70 70 71 73 74
65 65 65 63 61 59 57 57 58 59 60 61 62 61 61 60 62 64 65 66 69 72 73 73 72 72 73 72 73 73 74 75 75 76 77 76 77 79
63 61 61 60 59 59 59 60 61 62 64 65 65 66 66 67 69 70 70 70 71 72 73 74 75 76 77 78 78 79 80 81 82 82 82 82 81 83
58 59 59 60 60 61 62 63 64 65 67 69 70 71 71 72 73 74 75 76 77 77 78 78 79 80 81 82 84 86 85 86 86 87 88 88 88 89
60 61 62 63 65 66 67 68 69 71 72 73 74 75 76 77 78 79 80 81 82 83 84 85 86 87 87 88 87 87 87 88 88 89 88 87 86 85
66 67 68 69 70 71 72 73 74 75 76 78 79 81 82 83 84 85 85 86 86 86 85 84 83 82 82 81 80 79 78 77 78 79 82 84 82 79
67 68 69 71 72 74 75 77 78 79 80 82 83 84 85 85 84 82 80 77 75 74 73 72 72 71 71 71 71 71 71 71 70 70 74 75 75 74

GFSNE_500_spd_084.txt.gz
Wind_Speed
26 28 31 32 30 28 30 34 36 35 34 35 36 34 33 33 34 35 34 34 36 35 35 36 34 33 34 34 36 37 37 37 38 39 40 40 42 44
23 27 29 31 30 29 30 30 32 31 31 31 33 33 33 35 33 34 33 35 37 39 39 38 38 37 38 39 41 41 42 43 44 44 45 47 47 47
21 24 27 30 24 24 24 23 26 27 27 28 33 34 35 33 32 33 37 40 43 43 45 44 42 43 44 45 46 46 47 49 49 49 49 50 51 50
17 17 19 24 25 24 26 29 30 30 33 35 33 30 32 34 35 35 36 37 37 40 41 45 48 50 49 50 52 53 54 52 51 50 52 53 54 54
14 17 19 21 19 22 25 27 28 30 32 35 33 34 35 37 38 39 36 39 42 42 45 46 48 51 53 55 55 55 56 56 54 55 57 56 56 56
19 22 23 25 25 27 29 29 30 32 34 38 38 36 39 38 43 42 43 45 46 48 50 50 52 53 55 57 59 59 59 58 59 59 60 61 61 61
23 25 26 27 29 30 31 32 34 36 38 40 42 42 41 43 45 47 48 47 48 51 52 54 55 57 62 62 64 65 65 65 65 66 66 67 66 66
26 28 29 30 31 34 37 38 40 41 42 43 45 46 47 47 47 48 50 51 51 54 53 53 54 58 60 62 63 65 67 68 69 70 71 71 72 72
32 33 35 36 36 40 42 44 46 48 50 52 53 55 55 57 58 58 59 58 55 64 64 63 67 63 62 66 64 66 67 70 72 73 76 76 77 77
39 40 41 43 46 47 51 53 55 55 58 59 60 62 63 65 65 66 66 63 64 68 69 70 73 77 79 79 78 77 77 76 76 76 79 83 83 82
42 44 46 48 50 53 57 60 63 65 63 64 64 65 66 64 64 67 72 71 69 66 67 72 75 80 78 77 82 80 79 83 88 90 88 89 86 88
50 56 59 60 57 56 56 57 59 60 61 61 62 63 67 69 71 72 75 76 78 80 83 84 85 85 85 88 89 86 84 87 88 90 92 94 91 90
50 53 56 58 59 59 58 59 60 60 62 64 66 68 70 71 72 74 75 77 79 80 83 85 88 89 91 93 95 95 94 93 94 97 99 100 97 95
54 56 58 59 60 60 61 62 64 65 67 69 71 72 74 76 77 78 80 82 83 85 86 88 88 90 91 92 92 91 90 89 90 89 86 84 81 78
56 58 60 61 62 64 65 66 68 70 71 72 74 75 77 78 79 79 81 82 82 83 83 84 84 85 85 85 85 83 83 79 76 75 74 74 73 72
57 59 61 62 64 66 68 70 71 73 74 75 75 75 75 74 74 74 74 73 73 72 71 70 69 69 69 70 71 73 73 73 72 72 71 71 71 72
60 62 65 68 70 72 73 74 74 75 75 75 75 74 73 71 71 71 71 72 72 72 72 72 72 73 74 74 74 74 74 74 75 75 76 75 75 75
64 66 69 71 71 72 73 74 75 74 73 71 70 71 71 70 70 71 71 71 72 73 74 75 76 76 77 77 78 78 80 80 81 81 82 81 81 81
68 69 70 72 73 73 72 71 68 66 66 66 66 67 69 71 73 74 75 76 77 79 79 80 80 81 82 83 83 85 85 85 86 86 87 87 86 87
70 70 70 69 68 67 66 66 67 68 69 70 72 73 74 76 77 79 80 82 83 83 83 85 86 87 89 89 89 90 90 90 90 90 90 91 90 90
68 67 66 65 65 67 68 69 70 71 72 72 73 75 76 78 80 81 83 84 86 87 88 90 90 90 89 88 86 83 83 83 81 81 81 81 79 77
65 65 66 67 68 68 69 69 70 72 73 74 76 78 80 82 84 85 85 85 85 84 83 82 79 77 76 74 73 72 71 71 73 73 73 73 71 68
68 68 68 69 70 71 72 72 73 74 76 77 79 80 80 81 81 80 77 74 71 69 67 66 66 67 68 69 70 70 70 70 70 70 71 71 68 67

GFSNE_500_spd_087.txt.gz
Wind_Speed
39 29 17 20 21 23 26 28 29 27 31 34 37 35 33 34 34 36 36 34 35 34 33 33 33 33 35 35 34 33 32 33 33 34 36 37 38 39
34 24 28 26 26 28 31 32 31 28 28 31 32 34 34 34 33 33 33 35 35 35 35 34 35 38 39 40 39 36 37 38 38 40 41 42 43 45
26 18 21 25 28 30 30 30 31 31 30 27 28 28 29 31 33 35 36 32 32 33 34 34 35 37 39 40 41 43 45 45 44 45 46 47 49 50
17 20 22 23 25 26 27 25 26 26 28 29 34 33 32 34 32 32 33 35 36 35 35 36 36 38 39 41 43 45 48 49 50 51 51 54 53 53
20 22 23 22 22 24 24 23 25 28 31 33 30 31 32 32 34 35 35 37 38 39 40 42 43 44 46 49 49 50 52 52 54 55 55 56 57 58
21 21 21 20 22 24 24 24 27 29 32 34 34 32 34 33 37 37 38 39 40 42 44 45 47 49 50 51 53 54 56 57 58 60 60 61 62 63
20 20 21 23 22 23 24 26 29 30 32 34 34 35 35 37 39 41 42 41 43 46 47 49 51 53 54 54 55 56 56 59 63 64 63 65 67 67
22 23 24 25 26 28 30 32 35 35 37 40 41 42 43 43 45 46 50 52 54 54 55 57 58 60 61 63 60 61 64 66 65 70 68 68 71 74
27 29 30 31 32 33 34 36 39 43 44 46 49 52 53 53 48 58 57 56 61 60 65 64 66 66 66 64 68 69 69 71 71 70 71 76 80 81
32 33 35 38 39 40 42 43 45 47 48 50 52 57 60 62 65 65 62 63 64 65 69 67 68 69 72 76 78 80 76 73 73 77 81 82 83 84
36 37 39 40 43 45 47 49 52 53 58 58 58 59 60 62 62 63 63 64 67 68 71 72 73 75 76 78 82 83 83 86 87 87 88 90 91 88
43 44 46 48 50 52 54 55 57 58 59 61 62 63 64 65 67 68 68 69 71 72 74 76 77 78 79 80 82 84 84 86 87 88 90 90 91 91
48 50 51 51 53 55 56 58 60 61 63 65 66 68 69 70 71 72 74 75 76 78 79 80 81 82 83 84 84 85 86 86 87 87 87 87 88 88
49 51 52 55 57 58 60 62 62 63 64 65 67 69 70 72 74 76 78 79 81 82 83 85 85 86 86 86 85 83 80 79 77 75 72 71 71 71
50 53 55 57 60 62 62 64 64 65 67 69 71 73 75 78 80 82 84 85 86 87 87 87 87 87 85 83 82 80 79 78 78 76 75 74 73 72
53 56 59 60 61 64 64 65 67 69 71 74 76 79 81 83 85 85 86 87 87 87 86 85 83 82 81 81 81 81 81 80 80 80 79 79 79 77
56 57 59 61 62 64 66 68 71 73 76 78 80 81 83 84 86 87 87 86 84 82 80 77 78 79 80 81 82 83 82 83 84 84 84 82 83 83
57 59 60 62 65 68 70 72 74 75 77 79 81 83 85 85 85 82 79 78 78 79 80 81 82 82 85 85 85 85 88 88 88 88 88 88 87 88
61 64 66 67 69 71 72 74 76 79 81 82 83 82 81 79 78 78 79 80 80 79 80 80 81 82 84 86 89 89 91 92 92 92 93 94 93 92
65 67 69 71 73 75 76 78 79 81 80 79 77 77 78 78 78 77 77 77 79 80 82 84 86 88 90 90 91 91 92 92 91 88 88 86 84 82
70 72 74 75 76 77 78 78 77 77 77 76 76 76 76 77 78 79 80 82 84 85 87 88 89 89 88 87 84 80 78 77 75 75 73 73 71 69
73 75 75 75 75 76 76 77 77 76 76 76 77 77 78 79 81 82 83 84 85 85 85 84 80 76 72 70 69 69 69 70 71 71 71 71 69 65
73 74 74 75 76 76 76 76 77 77 78 78 79 80 81 82 83 83 82 81 79 74 70 65 63 64 66 67 67 67 67 68 67 66 66 66 64 61

GFSNE_500_spd_093.txt.gz
Wind_Speed
40 35 37 39 34 31 31 34 34 30 24 23 24 25 27 23 27 33 31 32 32 32 32 33 34 34 34 36 37 37 37 36 36 34 35 35 37 37
37 38 42 39 35 36 28 19 28 27 26 26 26 28 23 26 26 28 29 29 30 30 30 31 32 33 37 36 33 35 35 36 35 35 34 34 36 39
35 39 37 40 36 34 24 19 18 19 24 27 27 27 27 27 27 28 28 26 27 28 30 33 35 36 35 35 37 37 37 39 39 40 42 42 41 42
35 36 36 34 33 24 22 22 27 27 25 27 29 28 29 28 28 26 27 29 31 31 32 33 32 34 37 38 40 40 40 42 42 42 42 43 45 46
26 31 34 32 31 29 24 22 22 28 30 29 28 29 26 25 29 31 30 30 32 34 35 34 35 36 39 41 41 41 42 44 45 47 49 51 52 55
19 21 21 23 31 39 32 27 27 31 28 28 27 28 29 31 33 30 31 33 36 37 36 37 38 39 41 45 46 46 46 49 51 55 56 58 59 59
21 24 24 24 26 28 28 29 28 28 28 28 28 30 31 32 34 34 34 36 37 39 41 42 45 48 50 49 47 49 55 59 61 63 63 64 66 71
21 25 26 30 29 29 29 30 29 30 32 32 33 32 33 34 35 37 39 41 43 45 47 46 47 48 48 52 58 58 62 63 64 65 67 69 72 72
21 23 26 27 29 29 31 32 32 34 35 36 36 36 38 38 38 42 45 46 48 47 50 55 57 55 57 59 59 59 60 63 64 67 69 70 73 74
32 32 31 30 31 32 33 35 36 37 39 40 41 43 42 45 47 46 49 51 52 56 58 57 57 58 59 60 61 64 66 68 69 73 77 78 80 82
38 38 39 39 39 39 40 41 42 43 44 44 46 47 47 50 51 54 55 55 55 57 59 59 60 61 63 65 67 70 73 74 77 81 84 85 85 86
44 44 43 43 43 44 45 46 42 47 49 42 52 54 53 53 54 55 55 56 58 60 62 62 64 67 70 72 75 78 80 82 84 85 86 87 89 91
41 49 48 45 46 47 50 49 49 53 55 56 57 56 55 55 56 57 58 60 62 64 66 68 70 74 77 79 81 83 84 86 87 88 90 91 93 93
50 45 50 51 52 54 55 56 57 57 57 57 55 55 55 56 59 61 64 66 68 70 71 74 77 79 81 83 85 88 90 91 91 92 92 91 89 88
54 60 58 58 59 61 60 59 57 55 53 52 54 56 57 60 63 66 68 71 74 75 78 81 83 85 87 88 89 90 90 92 92 93 91 89 88 86
60 63 70 67 68 70 69 62 62 59 57 57 56 59 63 65 68 71 74 76 79 81 83 85 87 88 89 90 92 92 93 93 92 90 88 87 87 89
57 58 57 51 48 47 48 48 48 48 52 56 60 64 68 70 73 77 79 82 84 86 88 89 89 91 92 92 92 92 91 90 90 89 88 88 90 93
40 40 41 42 43 44 46 48 50 55 60 64 68 70 73 76 79 81 84 86 88 90 91 91 90 90 92 94 93 92 91 91 91 92 94 95 96 97
37 40 42 45 48 51 55 58 61 63 66 69 72 75 77 79 82 85 87 89 90 91 91 92 92 92 91 90 92 94 94 95 95 96 98 98 96 93
47 49 51 54 56 59 61 63 66 68 71 74 78 80 82 84 86 87 88 89 89 90 91 91 91 91 92 92 93 95 97 97 95 93 90 85 79 74
53 55 57 59 62 64 66 69 72 75 77 79 82 84 85 85 86 87 88 89 89 90 91 92 93 95 95 96 95 94 92 89 84 77 71 65 64 64
60 62 64 66 68 70 72 74 76 78 80 81 83 84 85 86 87 88 89 90 91 92 93 93 94 94 93 90 85 79 72 63 60 60 63 64 65 64
65 67 69 71 73 75 76 77 79 80 82 83 83 85 86 87 89 90 92 93 93 94 93 91 89 85 79 73 67 58 50 49 51 56 63 64 62 60

GFSNE_500_spd_096.txt.gz
Wind_Speed
28 34 34 33 32 33 31 31 35 35 33 35 35 37 41 40 35 30 29 32 32 32 32 33 35 34 32 32 33 34 34 36 32 31 31 32 33 34
35 30 33 34 33 41 36 31 31 32 29 32 29 29 29 29 30 31 31 31 32 33 33 33 32 32 31 31 32 34 34 33 34 35 35 35 35 38
38 37 35 40 33 39 38 34 32 21 23 30 28 26 29 27 29 32 32 33 32 30 32 30 29 30 33 35 35 36 37 38 38 38 38 39 40 40
30 35 37 41 41 38 39 34 32 25 22 25 28 31 32 32 30 31 31 30 31 32 31 31 33 33 33 36 37 38 39 41 40 40 40 42 43 44
26 32 39 40 39 37 38 32 26 25 25 30 32 32 30 30 31 32 32 32 32 34 34 34 34 36 38 39 40 40 40 41 43 45 47 47 48 51
18 32 33 34 32 35 30 33 33 25 28 28 35 32 30 31 34 31 32 34 36 37 37 38 38 39 38 38 42 43 46 48 50 50 48 50 56 62
11 18 23 26 24 26 33 33 40 38 35 32 34 33 34 33 35 34 36 37 38 39 39 39 40 41 42 45 47 49 49 50 53 55 54 62 62 64
14 17 22 24 23 24 26 29 35 34 34 35 35 36 36 36 35 36 36 37 38 40 42 44 45 48 50 52 51 53 58 59 58 62 65 66 65 66
18 18 22 27 30 30 30 32 37 38 37 37 35 35 36 37 38 39 40 42 44 46 47 50 52 53 54 56 59 62 62 62 62 63 66 67 68 70
25 24 24 27 29 32 35 35 36 36 36 37 38 39 41 41 43 45 45 45 49 51 55 55 57 60 60 61 65 66 66 66 67 69 70 72 75 77
32 34 32 34 35 36 38 39 40 42 43 43 44 45 46 46 47 47 50 51 53 53 59 63 63 64 64 64 66 68 69 70 72 73 75 78 81 84
32 35 40 42 42 43 43 44 45 46 47 48 49 49 49 49 51 53 54 56 60 62 61 63 64 66 67 68 70 71 72 74 76 79 82 85 87 90
39 40 42 43 45 48 50 50 50 51 51 51 51 57 55 56 59 61 64 67 67 66 65 65 67 69 70 72 73 74 76 79 82 85 87 89 92 95
48 51 46 45 46 51 53 55 57 57 57 57 58 63 63 66 68 68 68 68 66 66 67 68 69 70 72 74 77 80 83 85 88 90 93 95 97 98
56 63 59 63 58 56 59 64 59 60 64 65 69 71 72 72 71 69 67 69 71 72 70 70 72 74 77 79 82 85 89 91 94 96 98 99 99 99
66 64 65 71 74 71 70 74 69 70 71 73 74 77 79 77 72 70 67 65 65 66 68 72 77 80 83 86 89 91 93 96 98 99 99 100 101 101
75 74 73 76 78 74 80 80 88 85 82 78 69 65 64 64 63 63 63 66 69 72 75 78 81 85 88 91 93 95 97 99 100 102 103 102 100 102
58 60 64 70 73 68 63 56 57 57 57 56 56 57 57 58 61 64 69 73 76 79 81 83 87 90 92 94 96 98 100 102 103 102 102 101 100 103
47 48 48 48 48 47 49 50 50 50 51 53 55 58 62 65 69 73 76 78 80 83 87 88 90 91 93 96 99 101 102 101 101 102 104 103 102 99
39 40 42 44 46 47 49 51 54 57 59 62 65 67 70 73 75 78 80 83 85 87 89 91 92 95 96 97 98 101 104 105 105 103 99 96 90 82
48 49 51 52 54 56 57 59 62 64 65 67 70 73 76 78 80 82 84 86 88 90 92 93 95 96 97 99 100 101 102 101 99 94 87 78 67 56
53 55 57 58 60 61 64 66 68 69 71 73 76 78 80 82 83 85 87 88 90 91 93 95 96 98 99 98 97 94 90 87 82 75 67 57 49 46
61 62 63 64 66 68 70 72 73 75 77 78 80 81 83 83 84 86 88 90 91 92 93 94 93 92 91 87 84 79 74 66 60 54 51 47 47 51

GFSNE_500_spd_099.txt.gz
Wind_Speed
27 31 25 32 33 32 31 35 38 39 39 36 36 37 37 39 44 46 44 43 42 41 35 36 35 33 33 35 36 34 33 33 29 30 31 31 33 34
27 30 36 31 34 34 36 33 35 37 35 34 36 36 34 36 35 34 40 44 43 38 38 37 36 37 35 33 33 33 31 32 33 33 33 34 36 37
29 37 28 38 34 29 33 31 35 33 32 29 27 29 31 32 31 28 31 35 36 36 36 35 35 35 32 32 32 33 35 35 36 36 36 37 37 38
21 31 37 40 35 36 35 35 39 36 33 29 26 30 29 28 26 26 29 32 34 36 37 36 36 34 33 34 36 37 37 38 39 39 39 38 39 41
19 26 34 35 36 37 38 36 34 37 36 30 28 29 27 30 30 31 34 36 36 36 37 36 36 37 37 38 39 40 40 40 39 40 41 42 44 48
14 17 31 32 38 37 38 40 39 36 30 26 28 26 29 33 33 36 35 34 36 37 39 40 40 39 41 40 41 42 42 42 44 45 47 49 50 51
10 10 13 29 29 34 33 37 37 34 34 31 29 28 29 32 40 37 35 38 38 40 40 40 42 42 42 44 45 45 45 47 49 50 53 55 56 59
12 9 8 18 26 26 23 27 35 37 36 36 37 39 39 37 35 38 39 39 41 41 42 43 44 44 45 47 49 49 51 53 54 56 59 60 64 66
16 14 12 14 19 25 23 24 25 29 34 36 42 39 37 36 39 42 42 41 42 44 45 46 46 47 49 53 55 56 59 58 59 63 64 64 67 70
22 20 19 20 21 24 28 29 31 31 33 35 39 41 41 39 40 42 43 44 45 47 49 50 51 54 57 57 58 59 61 64 68 68 67 68 70 72
29 27 23 22 25 28 30 31 33 38 41 41 42 43 42 43 44 45 46 48 51 52 54 55 57 58 62 63 62 66 70 71 69 69 71 73 76 77
32 31 30 29 27 30 36 38 40 41 42 44 46 47 47 48 49 51 53 55 55 57 59 62 63 66 65 67 69 70 70 70 72 74 76 79 80 80
37 37 36 35 35 37 39 41 45 48 48 48 50 52 53 54 55 53 56 59 59 63 65 66 69 71 75 76 75 74 74 76 78 81 82 81 82 84
45 44 45 45 46 46 47 43 47 51 52 54 55 56 60 62 64 62 63 67 69 67 69 75 79 81 80 80 83 82 81 81 80 79 80 83 87 90
53 52 53 53 55 53 55 57 54 54 59 63 61 63 66 69 68 70 69 73 76 76 77 80 83 88 83 80 80 81 78 77 79 82 85 89 94 99
61 56 58 59 61 60 61 64 69 65 66 71 75 73 73 77 77 74 73 78 81 84 86 86 79 79 80 78 75 75 77 80 85 89 91 95 99 101
63 64 64 65 67 65 70 71 73 80 78 79 83 84 80 83 82 79 83 85 81 78 73 70 68 69 71 73 76 80 84 88 91 93 96 98 101 105
59 59 62 64 67 69 70 67 69 72 74 76 79 82 82 76 77 74 72 69 67 66 65 67 70 73 77 80 83 85 88 92 95 98 101 102 104 106
55 58 58 59 61 64 68 70 71 68 69 71 69 66 63 61 60 59 59 62 65 67 70 74 77 80 82 84 88 91 93 97 99 101 103 104 104 106
47 46 45 48 49 51 52 52 54 54 55 56 56 56 58 60 62 65 67 70 72 74 77 79 82 84 86 89 91 95 98 100 101 102 104 103 101 98
47 48 49 49 50 52 54 55 56 57 58 60 62 63 64 67 69 71 73 75 78 79 82 84 87 88 90 92 94 96 100 101 101 100 99 93 84 74
52 53 54 55 57 58 59 60 61 62 64 65 67 68 70 71 73 76 78 80 82 84 86 87 89 91 93 94 96 96 95 94 93 89 83 76 68 60
57 59 60 62 63 64 65 66 67 69 70 71 73 74 76 77 79 80 81 83 85 87 88 90 91 92 92 90 89 87 84 78 72 69 69 63 56 49